Location: Seattle
(47.6064°N, 122.3308°W)
Time: 23:26:15
(UTC-08:00)

Envisat - Pass Details

Date: 01 November 2020
Orbit: 764 x 766 km, 98.1° (Epoch: 03 December)

Event Time Altitude Azimuth Distance (km) Brightness Sun altitude
Rises 17:11:03 0° 166° (SSE) 3,220 6.3 -4.1°
Reaches altitude 10° 17:13:21 10° 168° (SSE) 2,298 5.6 -4.4°
Maximum altitude 17:18:25 83° 255° (WSW) 778 3.2 -5.2°
Drops below altitude 10° 17:23:32 10° 345° (NNW) 2,315 5.5 -6.1°
Sets 17:25:52 0° 346° (NNW) 3,245 6.2 -6.5°
